Previsão horária em Abaclia

Hoje, 26 Janeiro, Terça-feira

Tempo Temperatura Precipitação Vento Pressão Humidade
00:00 +1°C° 0 mm 6 m/s 746 mmHg 63%
01:00 -1°C° 0 mm 6 m/s 747 mmHg 64%
02:00 0°C° 0 mm 5 m/s 747 mmHg 66%
03:00 -1°C° 0 mm 4 m/s 748 mmHg 68%
04:00 0°C° 0 mm 3 m/s 748 mmHg 69%
05:00 +2°C° 0 mm 1 m/s 748 mmHg 71%
06:00 +2°C° 0.1 mm 1 m/s 748 mmHg 76%
07:00 +2°C° 0.1 mm 1 m/s 748 mmHg 80%
08:00 +3°C° 0 mm 1 m/s 749 mmHg 81%
09:00 +3°C° 0.1 mm 1 m/s 749 mmHg 82%
10:00 +3°C° 0.1 mm 1 m/s 749 mmHg 83%
11:00 +3°C° 0.1 mm 2 m/s 749 mmHg 84%
12:00 +2°C° 0.5 mm 2 m/s 749 mmHg 87%
13:00 +2°C° 0.5 mm 2 m/s 749 mmHg 90%
14:00 +1°C° 0 mm 3 m/s 749 mmHg 93%
15:00 +1°C° 0.1 mm 3 m/s 749 mmHg 93%
16:00 +1°C° 0.1 mm 3 m/s 750 mmHg 92%
17:00 +2°C° 0.1 mm 2 m/s 750 mmHg 91%
18:00 +2°C° 0 mm 2 m/s 750 mmHg 90%
19:00 +1°C° 0 mm 2 m/s 750 mmHg 89%
20:00 +1°C° 0 mm 2 m/s 750 mmHg 87%
21:00 0°C° 0 mm 3 m/s 751 mmHg 83%
22:00 -1°C° 0 mm 4 m/s 751 mmHg 79%
23:00 -1°C° 0 mm 5 m/s 751 mmHg 75%

Amanhã, 27 Janeiro, Quarta-feira

Tempo Temperatura Precipitação Vento Pressão Humidade
00:00 -2°C° 0.1 mm 6 m/s 750 mmHg 78%
01:00 -2°C° 0.1 mm 7 m/s 750 mmHg 81%
02:00 -3°C° 0.1 mm 7 m/s 750 mmHg 84%
03:00 -4°C° 0.4 mm 8 m/s 749 mmHg 86%
04:00 -4°C° 0.4 mm 8 m/s 749 mmHg 87%
05:00 -4°C° 0.4 mm 8 m/s 749 mmHg 89%
06:00 -5°C° 0.8 mm 8 m/s 748 mmHg 90%
07:00 -5°C° 0.8 mm 9 m/s 748 mmHg 90%
08:00 -5°C° 0.8 mm 9 m/s 748 mmHg 91%
09:00 -5°C° 1.2 mm 9 m/s 748 mmHg 92%
10:00 -5°C° 1.2 mm 10 m/s 747 mmHg 93%
11:00 -4°C° 1.2 mm 10 m/s 747 mmHg 94%
12:00 -4°C° 1.4 mm 11 m/s 746 mmHg 94%
13:00 -4°C° 1.4 mm 11 m/s 746 mmHg 95%
14:00 -4°C° 1.4 mm 11 m/s 745 mmHg 95%
15:00 -5°C° 2.5 mm 12 m/s 744 mmHg 95%
16:00 -6°C° 2.5 mm 12 m/s 744 mmHg 95%
17:00 -6°C° 2.5 mm 12 m/s 743 mmHg 95%
18:00 -6°C° 2.5 mm 12 m/s 743 mmHg 95%
19:00 -6°C° 2.5 mm 12 m/s 743 mmHg 95%
20:00 -6°C° 2.5 mm 12 m/s 743 mmHg 95%
21:00 -6°C° 0.7 mm 12 m/s 743 mmHg 94%
22:00 -6°C° 0.7 mm 12 m/s 743 mmHg 93%
23:00 -6°C° 0.7 mm 12 m/s 742 mmHg 93%

Depois de amanhã, 28 Janeiro, Quinta-feira

Tempo Temperatura Precipitação Vento Pressão Humidade
00:00 -6°C° 0.2 mm 11 m/s 742 mmHg 93%
01:00 -6°C° 0.2 mm 11 m/s 742 mmHg 93%
02:00 -5°C° 0.2 mm 10 m/s 742 mmHg 93%
03:00 -5°C° 0.6 mm 10 m/s 742 mmHg 93%
04:00 -6°C° 0.6 mm 11 m/s 742 mmHg 94%
05:00 -6°C° 0.6 mm 11 m/s 742 mmHg 94%
06:00 -6°C° 0.5 mm 11 m/s 742 mmHg 94%
07:00 -6°C° 0.5 mm 11 m/s 742 mmHg 94%
08:00 -6°C° 0.5 mm 11 m/s 742 mmHg 94%
09:00 -6°C° 0.9 mm 11 m/s 742 mmHg 95%
10:00 -6°C° 0.9 mm 12 m/s 742 mmHg 95%
11:00 -5°C° 0.9 mm 12 m/s 743 mmHg 95%
12:00 -5°C° 1 mm 12 m/s 743 mmHg 95%
13:00 -4°C° 1 mm 11 m/s 743 mmHg 95%
14:00 -4°C° 1 mm 11 m/s 743 mmHg 95%
15:00 -6°C° 0.9 mm 11 m/s 743 mmHg 95%
16:00 -5°C° 0.9 mm 10 m/s 744 mmHg 95%
17:00 -5°C° 0.9 mm 10 m/s 744 mmHg 95%
18:00 -5°C° 0.5 mm 9 m/s 745 mmHg 94%
19:00 -5°C° 0.5 mm 9 m/s 745 mmHg 94%
20:00 -5°C° 0.5 mm 8 m/s 745 mmHg 93%
21:00 -6°C° 0.1 mm 8 m/s 746 mmHg 93%
22:00 -6°C° 0.1 mm 7 m/s 746 mmHg 92%
23:00 -5°C° 0.1 mm 6 m/s 747 mmHg 91%

29 Janeiro, Sexta-feira

Tempo Temperatura Precipitação Vento Pressão Humidade
00:00 -5°C° 0 mm 6 m/s 747 mmHg 89%
01:00 -5°C° 0 mm 6 m/s 747 mmHg 87%
02:00 -5°C° 0 mm 5 m/s 747 mmHg 85%
03:00 -7°C° 0 mm 4 m/s 747 mmHg 84%
04:00 -7°C° 0 mm 3 m/s 747 mmHg 83%
05:00 -7°C° 0 mm 2 m/s 747 mmHg 82%
06:00 -8°C° 0 mm 3 m/s 748 mmHg 82%
07:00 -8°C° 0 mm 3 m/s 748 mmHg 82%
08:00 -8°C° 0 mm 3 m/s 748 mmHg 81%
09:00 -7°C° 0 mm 4 m/s 748 mmHg 82%
10:00 -6°C° 0 mm 5 m/s 748 mmHg 82%
11:00 -4°C° 0 mm 5 m/s 748 mmHg 83%
12:00 -2°C° 0 mm 5 m/s 747 mmHg 88%
13:00 -2°C° 0 mm 4 m/s 747 mmHg 93%
14:00 -1°C° 0 mm 4 m/s 746 mmHg 99%
15:00 -2°C° 0 mm 4 m/s 746 mmHg 97%
16:00 -1°C° 0 mm 3 m/s 746 mmHg 96%
17:00 -2°C° 0 mm 3 m/s 746 mmHg 94%
18:00 -3°C° 0 mm 2 m/s 746 mmHg 94%
19:00 -4°C° 0 mm 2 m/s 747 mmHg 94%
20:00 -2°C° 0 mm 1 m/s 747 mmHg 94%
21:00 -3°C° 0 mm 1 m/s 747 mmHg 92%
22:00 -3°C° 0 mm 1 m/s 747 mmHg 91%
23:00 -4°C° 0 mm 0 m/s 747 mmHg 89%

30 Janeiro, Sábado

Tempo Temperatura Precipitação Vento Pressão Humidade
00:00 -3°C° 0 mm 1 m/s 747 mmHg 89%
01:00 -2°C° 0 mm 1 m/s 747 mmHg 89%
02:00 -4°C° 0 mm 2 m/s 747 mmHg 89%
03:00 -4°C° 0 mm 2 m/s 746 mmHg 90%
04:00 -3°C° 0 mm 2 m/s 745 mmHg 92%
05:00 -3°C° 0 mm 2 m/s 745 mmHg 93%
06:00 -2°C° 0.3 mm 3 m/s 744 mmHg 95%
07:00 -1°C° 0.3 mm 3 m/s 744 mmHg 97%
08:00 -1°C° 0.3 mm 4 m/s 744 mmHg 98%
09:00 -1°C° 1.3 mm 4 m/s 743 mmHg 99%
10:00 0°C° 1.3 mm 3 m/s 743 mmHg 99%
11:00 +1°C° 1.3 mm 3 m/s 743 mmHg 99%
12:00 +1°C° 0.2 mm 3 m/s 743 mmHg 99%
13:00 +1°C° 0.2 mm 3 m/s 742 mmHg 99%
14:00 +1°C° 0.2 mm 3 m/s 742 mmHg 99%
15:00 +1°C° 0 mm 3 m/s 742 mmHg 99%
16:00 +1°C° 0 mm 3 m/s 743 mmHg 99%
17:00 -1°C° 0 mm 4 m/s 743 mmHg 98%
18:00 -1°C° 0 mm 3 m/s 744 mmHg 97%
19:00 -2°C° 0 mm 3 m/s 744 mmHg 95%
20:00 -4°C° 0 mm 3 m/s 745 mmHg 94%
21:00 -4°C° 0 mm 2 m/s 745 mmHg 93%
22:00 -5°C° 0 mm 2 m/s 745 mmHg 92%
23:00 -4°C° 0 mm 1 m/s 746 mmHg 92%

31 Janeiro, Domingo

Tempo Temperatura Precipitação Vento Pressão Humidade
00:00 -4°C° 0 mm 1 m/s 746 mmHg 90%
01:00 -4°C° 0 mm 1 m/s 746 mmHg 88%
02:00 -3°C° 0 mm 1 m/s 746 mmHg 86%
03:00 -3°C° 0 mm 1 m/s 746 mmHg 88%
04:00 -4°C° 0 mm 2 m/s 746 mmHg 90%
05:00 -4°C° 0 mm 2 m/s 746 mmHg 92%
06:00 -4°C° 0 mm 3 m/s 745 mmHg 94%
07:00 -3°C° 0 mm 4 m/s 745 mmHg 96%
08:00 -1°C° 0 mm 5 m/s 745 mmHg 98%
09:00 -1°C° 0 mm 5 m/s 745 mmHg 98%
10:00 -1°C° 0 mm 6 m/s 744 mmHg 99%
11:00 -1°C° 0 mm 6 m/s 744 mmHg 100%
12:00 +1°C° 0 mm 6 m/s 743 mmHg 100%
13:00 +1°C° 0 mm 6 m/s 743 mmHg 100%
14:00 +1°C° 0 mm 6 m/s 742 mmHg 99%
15:00 +1°C° 0 mm 6 m/s 741 mmHg 99%
16:00 +1°C° 0 mm 6 m/s 741 mmHg 99%
17:00 +1°C° 0 mm 6 m/s 741 mmHg 99%
18:00 +1°C° 0.4 mm 5 m/s 740 mmHg 99%
19:00 +2°C° 0.4 mm 3 m/s 740 mmHg 99%
20:00 +3°C° 0.4 mm 2 m/s 740 mmHg 99%
21:00 0°C° 1.3 mm 4 m/s 740 mmHg 99%
22:00 -1°C° 1.3 mm 5 m/s 740 mmHg 98%
23:00 -2°C° 1.3 mm 6 m/s 740 mmHg 97%
Mostrar mais